| time (UTC) | temp F | wind direction | speed MPH | gust MPH | rain 1hr in | rain 24hr in | rain mn in | humidity % | barometer mb |
| 20260831092437 | 60 | 288 | 1.0 | 4.0 | 0.00 | 0.03 | 0.00 | 98 | 1020.1 |
| 20260831091936 | 60 | 288 | 1.0 | 3.0 | 0.00 | 0.03 | 0.00 | 98 | 1020.0 |
| 20260831091436 | 61 | 288 | 1.0 | 3.0 | 0.00 | 0.03 | 0.00 | 98 | 1020.1 |
| 20260831090937 | 61 | 288 | 1.0 | 3.0 | 0.00 | 0.03 | 0.00 | 98 | 1020.1 |
| 20260831090437 | 61 | 288 | 1.0 | 3.0 | 0.00 | 0.03 | 0.00 | 98 | 1020.3 |
| 20260831085936 | 61 | 288 | 1.0 | 3.0 | 0.00 | 0.03 | 0.00 | 98 | 1020.2 |
| 20260831085436 | 61 | 288 | 1.0 | 3.0 | 0.00 | 0.03 | 0.00 | 98 | 1020.4 |
| 20260831084936 | 61 | 288 | 1.0 | 3.0 | 0.00 | 0.03 | 0.00 | 98 | 1020.3 |
| 20260831084438 | 60 | 288 | 0.0 | 2.0 | 0.00 | 0.03 | 0.00 | 98 | 1020.2 |
| 20260831083936 | 60 | 288 | 0.0 | 2.0 | 0.00 | 0.03 | 0.00 | 98 | 1020.3 |
| 20260831083436 | 60 | 288 | 0.0 | 2.0 | 0.00 | 0.03 | 0.00 | 97 | 1020.3 |
| 20260831082937 | 61 | 288 | 0.0 | 1.0 | 0.00 | 0.03 | 0.00 | 97 | 1020.3 |
| 20260831082436 | 61 | 288 | 0.0 | 3.0 | 0.00 | 0.03 | 0.00 | 97 | 1020.3 |
| 20260831081937 | 61 | 288 | 0.0 | 3.0 | 0.00 | 0.03 | 0.00 | 97 | 1020.3 |
| 20260831081436 | 61 | 288 | 0.0 | 2.0 | 0.00 | 0.03 | 0.00 | 98 | 1020.4 |
| 20260831080936 | 61 | 288 | 0.0 | 2.0 | 0.00 | 0.03 | 0.00 | 98 | 1020.3 |
| 20260831080656 | 61 | 288 | 0.0 | 2.0 | 0.00 | 0.03 | 0.00 | 98 | 1020.3 |
| 20260831075656 | 61 | 288 | 2.0 | 3.0 | 0.00 | 0.03 | 0.00 | 98 | 1020.3 |
| 20260831074936 | 61 | 288 | 1.0 | 3.0 | 0.00 | 0.03 | 0.00 | 98 | 1020.3 |
| 20260831074436 | 61 | 288 | 1.0 | 3.0 | 0.00 | 0.03 | 0.00 | 98 | 1020.2 |
| 20260831073935 | 61 | 288 | 0.0 | 3.0 | 0.00 | 0.03 | 0.00 | 98 | 1020.3 |
| 20260831073654 | 61 | 288 | 0.0 | 2.0 | 0.00 | 0.03 | 0.00 | 98 | 1020.3 |
| 20260831072936 | 61 | 288 | 0.0 | 2.0 | 0.00 | 0.03 | 0.00 | 98 | 1020.2 |
| 20260831072436 | 61 | 288 | 0.0 | 2.0 | 0.00 | 0.03 | 0.00 | 98 | 1020.3 |
| 20260831071936 | 61 | 288 | 0.0 | 2.0 | 0.00 | 0.03 | 0.00 | 98 | 1020.3 |
| 20260831071656 | 61 | 288 | 1.0 | 2.0 | 0.00 | 0.03 | 0.00 | 98 | 1020.3 |
| 20260831071158 | 61 | 288 | 1.0 | 2.0 | 0.00 | 0.03 | 0.00 | 98 | 1020.3 |
| 20260831070435 | 61 | 288 | 1.0 | 4.0 | 0.00 | 0.03 | 0.00 | 98 | 1020.3 |
| 20260831065936 | 61 | 288 | 1.0 | 4.0 | 0.00 | 0.03 | 0.00 | 98 | 1020.3 |
| 20260831065437 | 60 | 288 | 1.0 | 2.0 | 0.00 | 0.03 | 0.00 | 97 | 1020.3 |
| 20260831064936 | 60 | 288 | 1.0 | 3.0 | 0.00 | 0.03 | 0.00 | 98 | 1020.4 |
| 20260831064435 | 60 | 288 | 0.0 | 3.0 | 0.00 | 0.03 | 0.00 | 97 | 1020.4 |
| 20260831063936 | 60 | 288 | 0.0 | 0.0 | 0.00 | 0.03 | 0.00 | 97 | 1020.4 |
| 20260831063436 | 60 | 288 | 0.0 | 0.0 | 0.00 | 0.03 | 0.00 | 97 | 1020.3 |
| 20260831062936 | 60 | 288 | 0.0 | 0.0 | 0.00 | 0.03 | 0.00 | 97 | 1020.4 |
| 20260831062436 | 60 | 288 | 0.0 | 0.0 | 0.00 | 0.03 | 0.00 | 97 | 1020.4 |
| 20260831061936 | 60 | 288 | 0.0 | 0.0 | 0.00 | 0.03 | 0.00 | 97 | 1020.4 |
| 20260831061437 | 60 | 288 | 0.0 | 0.0 | 0.00 | 0.03 | 0.00 | 97 | 1020.4 |
| 20260831060936 | 60 | 288 | 0.0 | 0.0 | 0.00 | 0.03 | 0.00 | 97 | 1020.4 |
| 20260831060436 | 60 | 288 | 0.0 | 0.0 | 0.00 | 0.03 | 0.00 | 97 | 1020.3 |
| 20260831055936 | 61 | 288 | 0.0 | 0.0 | 0.00 | 0.03 | 0.00 | 97 | 1020.4 |
| 20260831055435 | 61 | 288 | 0.0 | 0.0 | 0.00 | 0.03 | 0.00 | 97 | 1020.6 |
| 20260831054936 | 61 | 288 | 0.0 | 0.0 | 0.00 | 0.03 | 0.00 | 97 | 1020.7 |
| 20260831054437 | 61 | 288 | 0.0 | 0.0 | 0.00 | 0.03 | 0.00 | 97 | 1020.7 |
| 20260831053935 | 61 | 288 | 0.0 | 0.0 | 0.00 | 0.03 | 0.00 | 97 | 1020.6 |
| 20260831053436 | 61 | 288 | 0.0 | 0.0 | 0.00 | 0.03 | 0.00 | 97 | 1020.7 |
| 20260831052937 | 61 | 288 | 0.0 | 0.0 | 0.00 | 0.03 | 0.00 | 97 | 1020.7 |
| 20260831052700 | 61 | 288 | 0.0 | 0.0 | 0.00 | 0.03 | 0.00 | 97 | 1020.7 |
| 20260831051936 | 61 | 288 | 0.0 | 0.0 | 0.00 | 0.03 | 0.00 | 97 | 1020.8 |
| 20260831051436 | 62 | 288 | 0.0 | 0.0 | 0.00 | 0.03 | 0.00 | 97 | 1020.8 |
| 20260831050936 | 62 | 288 | 0.0 | 0.0 | 0.00 | 0.03 | 0.00 | 97 | 1021.0 |
| 20260831050435 | 62 | 288 | 0.0 | 0.0 | 0.00 | 0.03 | 0.00 | 97 | 1021.0 |
| 20260831045935 | 62 | 288 | 0.0 | 0.0 | 0.00 | 0.03 | 0.00 | 97 | 1020.9 |
| 20260831045704 | 62 | 288 | 0.0 | 0.0 | 0.00 | 0.03 | 0.00 | 97 | 1021.1 |
| 20260831044936 | 62 | 288 | 0.0 | 0.0 | 0.00 | 0.03 | 0.00 | 97 | 1021.0 |
| 20260831044436 | 62 | 288 | 0.0 | 0.0 | 0.00 | 0.03 | 0.00 | 97 | 1021.0 |
| 20260831043935 | 61 | 288 | 0.0 | 0.0 | 0.00 | 0.03 | 0.00 | 97 | 1021.0 |
| 20260831043436 | 61 | 288 | 0.0 | 0.0 | 0.00 | 0.03 | 0.00 | 97 | 1021.0 |
| 20260831042936 | 61 | 288 | 0.0 | 0.0 | 0.00 | 0.03 | 0.00 | 96 | 1021.1 |
| 20260831042435 | 61 | 288 | 0.0 | 0.0 | 0.00 | 0.03 | 0.00 | 96 | 1021.0 |
| 20260831042157 | 61 | 288 | 0.0 | 0.0 | 0.00 | 0.03 | 0.00 | 96 | 1021.0 |
| 20260831041436 | 61 | 288 | 0.0 | 0.0 | 0.00 | 0.03 | 0.00 | 96 | 1021.0 |
| 20260831040935 | 61 | 288 | 0.0 | 0.0 | 0.00 | 0.03 | 0.00 | 96 | 1021.0 |
| 20260831040439 | 61 | 288 | 0.0 | 0.0 | 0.00 | 0.03 | 0.00 | 96 | 1021.0 |
| 20260831035935 | 60 | 288 | 0.0 | 0.0 | 0.00 | 0.03 | 0.03 | 96 | 1021.0 |
| 20260831035655 | 60 | 288 | 0.0 | 0.0 | 0.00 | 0.03 | 0.03 | 96 | 1020.9 |
| 20260831034936 | 60 | 288 | 0.0 | 0.0 | 0.00 | 0.03 | 0.03 | 95 | 1021.0 |
| 20260831034436 | 61 | 288 | 0.0 | 0.0 | 0.00 | 0.03 | 0.03 | 95 | 1021.1 |
| 20260831033936 | 61 | 288 | 0.0 | 0.0 | 0.00 | 0.03 | 0.03 | 95 | 1021.1 |
| 20260831033435 | 61 | 288 | 0.0 | 0.0 | 0.00 | 0.03 | 0.03 | 95 | 1021.1 |
| 20260831032935 | 61 | 288 | 0.0 | 0.0 | 0.00 | 0.03 | 0.03 | 95 | 1020.8 |
| 20260831032436 | 61 | 288 | 0.0 | 0.0 | 0.00 | 0.03 | 0.03 | 95 | 1020.9 |
| 20260831031935 | 61 | 288 | 0.0 | 0.0 | 0.00 | 0.03 | 0.03 | 95 | 1020.9 |
| 20260831031436 | 62 | 288 | 0.0 | 0.0 | 0.00 | 0.03 | 0.03 | 95 | 1020.8 |
| 20260831030936 | 62 | 288 | 0.0 | 0.0 | 0.00 | 0.03 | 0.03 | 95 | 1020.8 |
| 20260831030435 | 62 | 288 | 0.0 | 0.0 | 0.00 | 0.03 | 0.03 | 95 | 1020.8 |
| 20260831025935 | 62 | 288 | 0.0 | 0.0 | 0.00 | 0.03 | 0.03 | 95 | 1020.9 |
| 20260831025436 | 62 | 288 | 0.0 | 0.0 | 0.00 | 0.03 | 0.03 | 95 | 1020.8 |
| 20260831025159 | 62 | 288 | 0.0 | 0.0 | 0.00 | 0.03 | 0.03 | 95 | 1021.0 |
| 20260831024435 | 62 | 288 | 0.0 | 0.0 | 0.00 | 0.03 | 0.03 | 95 | 1020.9 |
| 20260831023936 | 62 | 288 | 0.0 | 0.0 | 0.00 | 0.03 | 0.03 | 95 | 1020.9 |
| 20260831023436 | 62 | 288 | 0.0 | 0.0 | 0.00 | 0.03 | 0.03 | 94 | 1021.0 |
| 20260831022935 | 63 | 288 | 0.0 | 0.0 | 0.00 | 0.03 | 0.03 | 94 | 1020.9 |
| 20260831022435 | 63 | 288 | 0.0 | 0.0 | 0.00 | 0.03 | 0.03 | 95 | 1020.9 |
| 20260831021936 | 63 | 288 | 0.0 | 0.0 | 0.00 | 0.03 | 0.03 | 94 | 1020.9 |
| 20260831021436 | 63 | 288 | 0.0 | 0.0 | 0.00 | 0.03 | 0.03 | 94 | 1021.0 |
| 20260831021203 | 63 | 288 | 0.0 | 0.0 | 0.00 | 0.03 | 0.03 | 94 | 1020.9 |
| 20260831020435 | 63 | 288 | 0.0 | 0.0 | 0.00 | 0.03 | 0.03 | 94 | 1021.0 |
| 20260831015938 | 63 | 288 | 0.0 | 0.0 | 0.00 | 0.03 | 0.03 | 94 | 1021.0 |
| 20260831015436 | 64 | 288 | 0.0 | 0.0 | 0.00 | 0.03 | 0.03 | 94 | 1020.9 |
| 20260831014936 | 64 | 288 | 0.0 | 0.0 | 0.00 | 0.03 | 0.03 | 94 | 1021.1 |
| 20260831014436 | 64 | 288 | 0.0 | 0.0 | 0.00 | 0.03 | 0.03 | 94 | 1021.1 |
| 20260831013935 | 64 | 288 | 0.0 | 0.0 | 0.00 | 0.03 | 0.03 | 94 | 1021.2 |
| 20260831013435 | 64 | 288 | 0.0 | 0.0 | 0.00 | 0.03 | 0.03 | 94 | 1021.3 |
| 20260831012936 | 64 | 288 | 0.0 | 0.0 | 0.00 | 0.03 | 0.03 | 94 | 1021.3 |
| 20260831012436 | 64 | 288 | 0.0 | 0.0 | 0.00 | 0.03 | 0.03 | 94 | 1021.2 |
| 20260831011935 | 65 | 288 | 0.0 | 0.0 | 0.00 | 0.03 | 0.03 | 94 | 1021.3 |
| 20260831011435 | 65 | 288 | 0.0 | 0.0 | 0.00 | 0.03 | 0.03 | 94 | 1021.1 |
| 20260831010936 | 65 | 288 | 0.0 | 0.0 | 0.00 | 0.03 | 0.03 | 94 | 1021.1 |
| 20260831010433 | 65 | 288 | 0.0 | 0.0 | 0.00 | 0.03 | 0.03 | 94 | 1020.9 |
| 20260831010156 | 65 | 288 | 0.0 | 0.0 | 0.00 | 0.03 | 0.03 | 93 | 1021.0 |
| 20260831005649 | 65 | 288 | 0.0 | 0.0 | 0.00 | 0.03 | 0.03 | 94 | 1020.9 |
| 20260831004431 | 65 | 288 | 0.0 | 0.0 | 0.00 | 0.03 | 0.03 | 94 | 1020.8 |
| 20260831004154 | 66 | 288 | 0.0 | 0.0 | 0.00 | 0.03 | 0.03 | 94 | 1020.6 |
| 20260831003654 | 66 | 288 | 0.0 | 0.0 | 0.00 | 0.03 | 0.03 | 94 | 1020.3 |
| 20260831002931 | 66 | 288 | 0.0 | 0.0 | 0.00 | 0.03 | 0.03 | 94 | 1020.2 |
| 20260831002652 | 66 | 288 | 0.0 | 0.0 | 0.00 | 0.03 | 0.03 | 94 | 1020.3 |
| 20260831001931 | 66 | 288 | 0.0 | 0.0 | 0.00 | 0.03 | 0.03 | 94 | 1020.2 |
| 20260831001152 | 66 | 288 | 0.0 | 0.0 | 0.00 | 0.03 | 0.03 | 94 | 1020.1 |
| 20260831000432 | 66 | 288 | 0.0 | 0.0 | 0.00 | 0.03 | 0.03 | 94 | 1019.9 |
| 20260830235931 | 66 | 288 | 0.0 | 0.0 | 0.00 | 0.03 | 0.03 | 94 | 1019.8 |
| 20260830235431 | 66 | 288 | 0.0 | 0.0 | 0.00 | 0.03 | 0.03 | 93 | 1019.8 |
| 20260830235158 | 67 | 288 | 0.0 | 1.0 | 0.00 | 0.03 | 0.03 | 93 | 1019.6 |
| 20260830234431 | 67 | 288 | 1.0 | 4.0 | 0.00 | 0.03 | 0.03 | 93 | 1019.7 |
| 20260830233932 | 67 | 288 | 1.0 | 4.0 | 0.00 | 0.03 | 0.03 | 94 | 1019.7 |
| 20260830233431 | 67 | 288 | 1.0 | 3.0 | 0.00 | 0.03 | 0.03 | 94 | 1019.7 |
| 20260830232931 | 67 | 288 | 0.0 | 3.0 | 0.00 | 0.03 | 0.03 | 94 | 1019.6 |
| 20260830232431 | 67 | 288 | 1.0 | 3.0 | 0.00 | 0.03 | 0.03 | 94 | 1019.6 |
| 20260830231931 | 67 | 288 | 1.0 | 4.0 | 0.00 | 0.03 | 0.03 | 94 | 1019.7 |
| 20260830231432 | 67 | 288 | 1.0 | 4.0 | 0.00 | 0.03 | 0.03 | 94 | 1019.7 |
| 20260830231152 | 67 | 288 | 1.0 | 3.0 | 0.00 | 0.03 | 0.03 | 94 | 1019.7 |
| 20260830230431 | 67 | 288 | 0.0 | 2.0 | 0.00 | 0.03 | 0.03 | 94 | 1019.7 |
| 20260830225931 | 67 | 288 | 0.0 | 3.0 | 0.00 | 0.03 | 0.03 | 94 | 1019.7 |
| 20260830225432 | 67 | 288 | 1.0 | 5.0 | 0.00 | 0.03 | 0.03 | 94 | 1019.6 |
| 20260830224931 | 67 | 288 | 1.0 | 5.0 | 0.00 | 0.03 | 0.03 | 94 | 1019.6 |
| 20260830224431 | 67 | 288 | 0.0 | 4.0 | 0.00 | 0.03 | 0.03 | 94 | 1019.7 |
| 20260830223931 | 67 | 288 | 0.0 | 4.0 | 0.00 | 0.03 | 0.03 | 94 | 1019.6 |
| 20260830223658 | 67 | 288 | 0.0 | 3.0 | 0.00 | 0.03 | 0.03 | 94 | 1019.7 |
| 20260830222932 | 67 | 288 | 1.0 | 5.0 | 0.00 | 0.03 | 0.03 | 94 | 1019.6 |
| 20260830222431 | 67 | 288 | 2.0 | 5.0 | 0.00 | 0.03 | 0.03 | 94 | 1019.7 |
| 20260830221931 | 67 | 288 | 1.0 | 5.0 | 0.00 | 0.03 | 0.03 | 94 | 1019.7 |
| 20260830221431 | 67 | 288 | 1.0 | 4.0 | 0.00 | 0.03 | 0.03 | 94 | 1019.7 |
| 20260830220931 | 67 | 288 | 0.0 | 3.0 | 0.00 | 0.03 | 0.03 | 94 | 1019.7 |
| 20260830220647 | 67 | 288 | 0.0 | 1.0 | 0.00 | 0.03 | 0.03 | 94 | 1019.7 |
| 20260830215931 | 67 | 288 | 1.0 | 3.0 | 0.00 | 0.03 | 0.03 | 94 | 1019.7 |
| 20260830215431 | 67 | 288 | 1.0 | 3.0 | 0.00 | 0.03 | 0.03 | 94 | 1019.7 |
| 20260830214931 | 67 | 288 | 0.0 | 3.0 | 0.00 | 0.03 | 0.03 | 94 | 1019.6 |
| 20260830214431 | 67 | 288 | 0.0 | 5.0 | 0.00 | 0.03 | 0.03 | 94 | 1019.6 |
| 20260830213433 | 66 | 288 | 1.0 | 5.0 | 0.00 | 0.03 | 0.03 | 94 | 1019.6 |
| 20260830212932 | 66 | 288 | 1.0 | 5.0 | 0.00 | 0.03 | 0.03 | 94 | 1019.6 |
| 20260830212431 | 66 | 288 | 1.0 | 5.0 | 0.00 | 0.03 | 0.03 | 94 | 1019.5 |
| 20260830211930 | 66 | 288 | 1.0 | 5.0 | 0.00 | 0.03 | 0.03 | 94 | 1019.5 |
| 20260830211432 | 66 | 288 | 1.0 | 4.0 | 0.00 | 0.03 | 0.03 | 94 | 1019.6 |
| 20260830210931 | 66 | 288 | 1.0 | 4.0 | 0.00 | 0.03 | 0.03 | 94 | 1019.6 |
| 20260830205931 | 66 | 288 | 1.0 | 4.0 | 0.01 | 0.03 | 0.03 | 94 | 1019.7 |
| 20260830205430 | 66 | 288 | 2.0 | 5.0 | 0.02 | 0.03 | 0.03 | 94 | 1019.8 |
| 20260830204929 | 66 | 288 | 2.0 | 5.0 | 0.03 | 0.03 | 0.03 | 94 | 1019.9 |
| 20260830204652 | 66 | 288 | 1.0 | 4.0 | 0.03 | 0.03 | 0.03 | 94 | 1019.8 |
| 20260830203929 | 66 | 288 | 2.0 | 4.0 | 0.03 | 0.03 | 0.03 | 94 | 1019.7 |
| 20260830203429 | 66 | 288 | 1.0 | 4.0 | 0.03 | 0.03 | 0.03 | 94 | 1019.6 |
| 20260830202930 | 66 | 288 | 1.0 | 3.0 | 0.03 | 0.03 | 0.03 | 93 | 1019.6 |
| 20260830202429 | 66 | 288 | 1.0 | 2.0 | 0.03 | 0.03 | 0.03 | 93 | 1019.6 |
| 20260830201929 | 66 | 288 | 1.0 | 2.0 | 0.03 | 0.03 | 0.03 | 93 | 1019.6 |
| 20260830201429 | 66 | 288 | 0.0 | 2.0 | 0.03 | 0.03 | 0.03 | 93 | 1019.7 |
| 20260830200929 | 66 | 288 | 0.0 | 2.0 | 0.03 | 0.03 | 0.02 | 93 | 1019.7 |
| 20260830200428 | 66 | 288 | 1.0 | 4.0 | 0.02 | 0.02 | 0.02 | 93 | 1019.8 |
| 20260830195928 | 66 | 288 | 1.0 | 4.0 | 0.02 | 0.02 | 0.02 | 93 | 1019.8 |
| 20260830194929 | 66 | 288 | 0.0 | 2.0 | 0.00 | 0.00 | 0.00 | 92 | 1019.9 |
| 20260830194429 | 66 | 288 | 0.0 | 2.0 | 0.00 | 0.00 | 0.00 | 92 | 1019.8 |
| 20260830193928 | 66 | 288 | 0.0 | 1.0 | 0.00 | 0.00 | 0.00 | 92 | 1019.7 |
| 20260830193428 | 66 | 288 | 0.0 | 0.0 | 0.00 | 0.00 | 0.00 | 92 | 1019.7 |
| 20260830192428 | 66 | 288 | 0.0 | 2.0 | 0.00 | 0.00 | 0.00 | 92 | 1019.7 |
| 20260830191929 | 66 | 288 | 0.0 | 2.0 | 0.00 | 0.00 | 0.00 | 92 | 1019.7 |
| 20260830191653 | 66 | 288 | 1.0 | 3.0 | 0.00 | 0.00 | 0.00 | 92 | 1019.8 |
| 20260830190928 | 66 | 288 | 1.0 | 3.0 | 0.00 | 0.00 | 0.00 | 91 | 1019.9 |
| 20260830190429 | 66 | 288 | 1.0 | 4.0 | 0.00 | 0.00 | 0.00 | 91 | 1020.1 |
| 20260830190145 | 66 | 288 | 1.0 | 4.0 | 0.00 | 0.00 | 0.00 | 91 | 1020.4 |
| 20260830185651 | 67 | 288 | 2.0 | 4.0 | 0.00 | 0.00 | 0.00 | 90 | 1020.6 |
| 20260830184930 | 67 | 288 | 3.0 | 5.0 | 0.00 | 0.00 | 0.00 | 89 | 1020.7 |
| 20260830184428 | 67 | 288 | 3.0 | 8.0 | 0.00 | 0.00 | 0.00 | 88 | 1020.7 |
| 20260830183929 | 67 | 288 | 3.0 | 8.0 | 0.00 | 0.00 | 0.00 | 87 | 1020.8 |
| 20260830183429 | 68 | 288 | 3.0 | 8.0 | 0.00 | 0.00 | 0.00 | 86 | 1020.8 |
| 20260830182928 | 68 | 288 | 3.0 | 8.0 | 0.00 | 0.00 | 0.00 | 85 | 1020.8 |
| 20260830182429 | 69 | 288 | 3.0 | 8.0 | 0.00 | 0.00 | 0.00 | 84 | 1020.7 |
| 20260830181928 | 69 | 288 | 3.0 | 8.0 | 0.00 | 0.00 | 0.00 | 83 | 1020.7 |
| 20260830181429 | 69 | 288 | 2.0 | 8.0 | 0.00 | 0.00 | 0.00 | 82 | 1020.7 |
| 20260830181153 | 70 | 288 | 3.0 | 8.0 | 0.00 | 0.00 | 0.00 | 81 | 1020.6 |
| 20260830180428 | 70 | 288 | 3.0 | 8.0 | 0.00 | 0.00 | 0.00 | 80 | 1020.6 |
| 20260830175928 | 70 | 288 | 4.0 | 9.0 | 0.00 | 0.00 | 0.00 | 79 | 1020.6 |
| 20260830175429 | 70 | 288 | 3.0 | 9.0 | 0.00 | 0.00 | 0.00 | 78 | 1020.6 |
| 20260830174929 | 70 | 288 | 3.0 | 9.0 | 0.00 | 0.00 | 0.00 | 78 | 1020.6 |
| 20260830174651 | 71 | 288 | 4.0 | 11.0 | 0.00 | 0.00 | 0.00 | 77 | 1020.7 |
| 20260830173929 | 71 | 288 | 4.0 | 11.0 | 0.00 | 0.00 | 0.00 | 76 | 1020.6 |
| 20260830173428 | 71 | 288 | 3.0 | 9.0 | 0.00 | 0.00 | 0.00 | 75 | 1020.4 |
| 20260830172928 | 72 | 288 | 2.0 | 7.0 | 0.00 | 0.00 | 0.00 | 76 | 1020.4 |
| 20260830172429 | 72 | 288 | 1.0 | 7.0 | 0.00 | 0.00 | 0.00 | 75 | 1020.3 |
| 20260830171928 | 72 | 288 | 2.0 | 5.0 | 0.00 | 0.00 | 0.00 | 75 | 1020.3 |
| 20260830171429 | 72 | 288 | 2.0 | 7.0 | 0.00 | 0.00 | 0.00 | 74 | 1020.4 |
| 20260830170929 | 72 | 288 | 3.0 | 8.0 | 0.00 | 0.00 | 0.00 | 73 | 1020.3 |
| 20260830170428 | 72 | 288 | 3.0 | 8.0 | 0.00 | 0.00 | 0.00 | 71 | 1020.3 |
| 20260830165432 | 72 | 288 | 2.0 | 8.0 | 0.00 | 0.00 | 0.00 | 71 | 1020.2 |
| 20260830164930 | 72 | 288 | 2.0 | 5.0 | 0.00 | 0.00 | 0.00 | 71 | 1020.3 |
| 20260830164428 | 73 | 288 | 2.0 | 5.0 | 0.00 | 0.00 | 0.00 | 72 | 1020.3 |
| 20260830163929 | 73 | 288 | 2.0 | 7.0 | 0.00 | 0.00 | 0.00 | 71 | 1020.2 |
| 20260830163651 | 73 | 288 | 2.0 | 7.0 | 0.00 | 0.00 | 0.00 | 72 | 1020.2 |
| 20260830162928 | 72 | 288 | 3.0 | 7.0 | 0.00 | 0.00 | 0.00 | 71 | 1020.1 |
| 20260830162147 | 73 | 288 | 3.0 | 7.0 | 0.00 | 0.00 | 0.00 | 71 | 1020.2 |
| 20260830161428 | 73 | 288 | 2.0 | 7.0 | 0.00 | 0.00 | 0.00 | 72 | 1020.3 |
| 20260830160928 | 73 | 288 | 2.0 | 5.0 | 0.00 | 0.00 | 0.00 | 73 | 1020.3 |
| 20260830160429 | 73 | 288 | 2.0 | 4.0 | 0.00 | 0.00 | 0.00 | 73 | 1020.2 |
| 20260830155928 | 72 | 288 | 2.0 | 4.0 | 0.00 | 0.00 | 0.00 | 74 | 1020.3 |
| 20260830155429 | 72 | 288 | 2.0 | 5.0 | 0.00 | 0.00 | 0.00 | 73 | 1020.4 |
| 20260830154929 | 72 | 288 | 3.0 | 7.0 | 0.00 | 0.00 | 0.00 | 74 | 1020.2 |
| 20260830154652 | 72 | 288 | 3.0 | 7.0 | 0.00 | 0.00 | 0.00 | 74 | 1020.3 |
| 20260830153928 | 72 | 288 | 2.0 | 5.0 | 0.00 | 0.00 | 0.00 | 74 | 1020.3 |
| 20260830153429 | 72 | 288 | 2.0 | 7.0 | 0.00 | 0.00 | 0.00 | 75 | 1020.3 |
| 20260830152928 | 72 | 288 | 3.0 | 7.0 | 0.00 | 0.00 | 0.00 | 73 | 1020.3 |
| 20260830152429 | 71 | 288 | 3.0 | 9.0 | 0.00 | 0.00 | 0.00 | 74 | 1020.3 |
| 20260830151428 | 72 | 288 | 2.0 | 7.0 | 0.00 | 0.00 | 0.00 | 74 | 1020.3 |
| 20260830150928 | 72 | 288 | 2.0 | 5.0 | 0.00 | 0.00 | 0.00 | 74 | 1020.4 |
| 20260830150428 | 72 | 288 | 2.0 | 7.0 | 0.00 | 0.00 | 0.00 | 74 | 1020.4 |
| 20260830145929 | 71 | 288 | 3.0 | 7.0 | 0.00 | 0.00 | 0.00 | 75 | 1020.4 |
| 20260830145429 | 71 | 288 | 3.0 | 8.0 | 0.00 | 0.00 | 0.00 | 74 | 1020.4 |
| 20260830144929 | 71 | 288 | 3.0 | 8.0 | 0.00 | 0.00 | 0.00 | 73 | 1020.3 |
| 20260830144428 | 71 | 288 | 3.0 | 7.0 | 0.00 | 0.00 | 0.00 | 74 | 1020.4 |
| 20260830143428 | 71 | 288 | 3.0 | 10.0 | 0.00 | 0.00 | 0.00 | 74 | 1020.2 |
| 20260830142928 | 71 | 288 | 3.0 | 10.0 | 0.00 | 0.00 | 0.00 | 75 | 1020.2 |
| 20260830142428 | 71 | 288 | 4.0 | 8.0 | 0.00 | 0.00 | 0.00 | 75 | 1020.2 |
| 20260830141928 | 71 | 288 | 3.0 | 8.0 | 0.00 | 0.00 | 0.00 | 75 | 1020.2 |
| 20260830141428 | 70 | 288 | 3.0 | 7.0 | 0.00 | 0.00 | 0.00 | 76 | 1020.2 |
| 20260830140429 | 69 | 288 | 3.0 | 10.0 | 0.00 | 0.00 | 0.00 | 77 | 1020.2 |
| 20260830135930 | 69 | 288 | 2.0 | 7.0 | 0.00 | 0.00 | 0.00 | 77 | 1020.1 |
| 20260830135428 | 69 | 288 | 3.0 | 8.0 | 0.00 | 0.00 | 0.00 | 77 | 1020.0 |
| 20260830134928 | 69 | 288 | 3.0 | 9.0 | 0.00 | 0.00 | 0.00 | 77 | 1020.0 |
| 20260830134428 | 69 | 288 | 3.0 | 9.0 | 0.00 | 0.00 | 0.00 | 77 | 1020.1 |
| 20260830133929 | 69 | 288 | 2.0 | 7.0 | 0.00 | 0.00 | 0.00 | 77 | 1020.1 |
| 20260830133648 | 68 | 288 | 2.0 | 7.0 | 0.00 | 0.00 | 0.00 | 78 | 1020.2 |
| 20260830133151 | 68 | 288 | 3.0 | 7.0 | 0.00 | 0.00 | 0.00 | 78 | 1020.3 |
| 20260830132428 | 68 | 288 | 3.0 | 7.0 | 0.00 | 0.00 | 0.00 | 77 | 1020.2 |
| 20260830132149 | 68 | 288 | 3.0 | 11.0 | 0.00 | 0.00 | 0.00 | 77 | 1020.4 |
| 20260830131424 | 68 | 288 | 3.0 | 11.0 | 0.00 | 0.00 | 0.00 | 77 | 1020.2 |
| 20260830131143 | 68 | 288 | 3.0 | 10.0 | 0.00 | 0.00 | 0.00 | 77 | 1020.3 |
| 20260830130646 | 68 | 288 | 3.0 | 10.0 | 0.00 | 0.00 | 0.00 | 77 | 1020.2 |
| 20260830125924 | 68 | 288 | 3.0 | 8.0 | 0.00 | 0.00 | 0.00 | 77 | 1020.2 |
| 20260830125425 | 68 | 288 | 4.0 | 9.0 | 0.00 | 0.00 | 0.00 | 77 | 1020.2 |
| 20260830124924 | 68 | 288 | 4.0 | 9.0 | 0.00 | 0.00 | 0.00 | 77 | 1020.2 |
| 20260830124425 | 68 | 288 | 4.0 | 10.0 | 0.00 | 0.00 | 0.00 | 78 | 1020.4 |
| 20260830123925 | 68 | 288 | 3.0 | 10.0 | 0.00 | 0.00 | 0.00 | 78 | 1020.4 |
| 20260830123424 | 68 | 288 | 3.0 | 9.0 | 0.00 | 0.00 | 0.00 | 78 | 1020.2 |
| 20260830122924 | 68 | 288 | 3.0 | 9.0 | 0.00 | 0.00 | 0.00 | 78 | 1020.6 |
| 20260830122652 | 68 | 288 | 3.0 | 9.0 | 0.00 | 0.00 | 0.00 | 78 | 1020.6 |
| 20260830121924 | 68 | 288 | 3.0 | 9.0 | 0.00 | 0.00 | 0.00 | 78 | 1020.6 |
| 20260830121424 | 67 | 288 | 3.0 | 9.0 | 0.00 | 0.00 | 0.00 | 79 | 1020.6 |
| 20260830120924 | 67 | 288 | 3.0 | 9.0 | 0.00 | 0.00 | 0.00 | 78 | 1020.7 |
| 20260830120424 | 67 | 288 | 4.0 | 10.0 | 0.00 | 0.00 | 0.00 | 79 | 1020.7 |
| 20260830115924 | 67 | 288 | 4.0 | 11.0 | 0.00 | 0.00 | 0.00 | 79 | 1020.6 |
| 20260830115424 | 67 | 288 | 4.0 | 13.0 | 0.00 | 0.00 | 0.00 | 79 | 1020.6 |
| 20260830114924 | 67 | 288 | 5.0 | 13.0 | 0.00 | 0.00 | 0.00 | 80 | 1020.4 |
| 20260830114424 | 67 | 288 | 4.0 | 11.0 | 0.00 | 0.00 | 0.00 | 80 | 1020.4 |
| 20260830113924 | 66 | 288 | 4.0 | 11.0 | 0.00 | 0.00 | 0.00 | 80 | 1020.4 |
| 20260830113424 | 66 | 288 | 3.0 | 11.0 | 0.00 | 0.00 | 0.00 | 80 | 1020.6 |
| 20260830112924 | 66 | 288 | 4.0 | 12.0 | 0.00 | 0.00 | 0.00 | 80 | 1020.4 |
| 20260830112425 | 66 | 288 | 3.0 | 12.0 | 0.00 | 0.00 | 0.00 | 81 | 1020.6 |
| 20260830111924 | 66 | 288 | 3.0 | 8.0 | 0.00 | 0.00 | 0.00 | 82 | 1020.6 |
| 20260830111424 | 66 | 288 | 3.0 | 8.0 | 0.00 | 0.00 | 0.00 | 82 | 1020.6 |
| 20260830110923 | 66 | 288 | 3.0 | 9.0 | 0.00 | 0.00 | 0.00 | 81 | 1020.7 |
| 20260830110651 | 66 | 288 | 3.0 | 9.0 | 0.00 | 0.00 | 0.00 | 81 | 1020.6 |
| 20260830110153 | 66 | 288 | 2.0 | 5.0 | 0.00 | 0.00 | 0.00 | 81 | 1020.4 |
| 20260830105424 | 66 | 288 | 2.0 | 5.0 | 0.00 | 0.00 | 0.00 | 81 | 1020.3 |
| 20260830104924 | 66 | 288 | 2.0 | 4.0 | 0.00 | 0.00 | 0.00 | 81 | 1020.6 |
| 20260830104425 | 66 | 288 | 2.0 | 7.0 | 0.00 | 0.00 | 0.00 | 81 | 1020.7 |
| 20260830103924 | 66 | 288 | 2.0 | 7.0 | 0.00 | 0.00 | 0.00 | 81 | 1020.7 |
| 20260830103423 | 66 | 288 | 2.0 | 5.0 | 0.00 | 0.00 | 0.00 | 81 | 1020.9 |
| 20260830102924 | 66 | 288 | 2.0 | 5.0 | 0.00 | 0.00 | 0.00 | 80 | 1020.9 |
| 20260830102424 | 66 | 288 | 2.0 | 7.0 | 0.00 | 0.00 | 0.00 | 80 | 1020.9 |
| 20260830101924 | 66 | 288 | 2.0 | 7.0 | 0.00 | 0.00 | 0.00 | 80 | 1020.8 |
| 20260830101425 | 66 | 288 | 3.0 | 9.0 | 0.00 | 0.00 | 0.00 | 80 | 1020.8 |
| 20260830100924 | 66 | 288 | 3.0 | 9.0 | 0.00 | 0.00 | 0.00 | 80 | 1020.8 |
| 20260830100423 | 66 | 288 | 2.0 | 8.0 | 0.00 | 0.00 | 0.00 | 81 | 1020.9 |
| 20260830095924 | 65 | 288 | 2.0 | 8.0 | 0.00 | 0.00 | 0.00 | 81 | 1021.0 |
| 20260830095424 | 65 | 288 | 2.0 | 7.0 | 0.00 | 0.00 | 0.00 | 81 | 1020.9 |
| 20260830094924 | 65 | 288 | 2.0 | 5.0 | 0.00 | 0.00 | 0.00 | 82 | 1020.9 |
| 20260830094423 | 65 | 288 | 2.0 | 5.0 | 0.00 | 0.00 | 0.00 | 82 | 1020.9 |
| 20260830093923 | 65 | 288 | 3.0 | 7.0 | 0.00 | 0.00 | 0.00 | 82 | 1021.0 |
| 20260830093651 | 65 | 288 | 3.0 | 7.0 | 0.00 | 0.00 | 0.00 | 81 | 1021.0 |
| 20260830092923 | 65 | 288 | 2.0 | 4.0 | 0.00 | 0.00 | 0.00 | 81 | 1021.0 |